User: anonymous   Login
Location: Unspecified
(0.0000°N, 0.0000°E)
Time: 03:25:23
(UTC+00:00)
Language:

DX 1 - Orbit

View from above orbital plane
View from above orbital plane
View from above satellite
View from above satellite

Ground track
Ground track

The orbit data is extracted from the following two-line orbital elements,

1 40071U 14037C   24057.80576919  .00002714  00000-0  33134-3 0  9991
2 40071  98.3405 325.2660 0009173 118.0719 242.1423 14.84178826521111
Epoch (UTC): 26 February 2024 19:20:18
Eccentricity: 0.0009173
inclination: 98.3405°
perigee height: 610 km
apogee height: 622 km
right ascension of ascending node: 325.2660°
argument of perigee: 118.0719°
revolutions per day: 14.84178826
mean anomaly at epoch: 242.1423°
orbit number at epoch: 52111

The dashed part of the orbit path shows where the satellite is in the earth's shadow,  

DLR